Temperature
19 20 20 20 20 20 22 24 25 24 25 24 24 24 24 23 22 19 19 19 19 19 19 17 16 16 15 14 13 12 12 12 11 11 11 11 10 10 10 10 10 10 10 10 10 10 11 11 11
19 19 20 21 20 20 23 24 24 24 24 24 24 24 24 24 22 20 20 19 19 19 19 17 17 16 15 14 13 13 12 12 11 11 11 10 10 10 10 10 10 10 10 10 11 11 11 11 11
19 19 21 21 21 21 23 24 24 24 24 24 24 24 24 23 22 20 20 19 19 18 18 18 17 16 15 14 13 13 12 11 11 11 10 10 10 10 10 10 10 10 10 10 11 11 11 11 12
19 20 21 21 22 24 24 24 24 24 24 23 24 24 23 22 22 21 20 19 18 18 18 18 17 16 15 14 13 13 12 11 11 10 10 10 10 10 10 10 10 11 11 11 11 11 11 11 12
19 21 21 21 22 25 25 25 24 24 24 24 24 24 22 21 21 21 20 19 18 18 17 18 16 16 15 14 13 12 12 11 11 10 10 10 10 10 10 10 10 11 11 11 11 11 11 11 12
20 22 21 21 23 25 25 25 24 24 24 24 24 24 21 20 21 20 20 19 18 17 17 17 16 15 14 13 12 12 11 11 10 10 10 10 9 10 10 10 10 10 11 11 11 11 11 11 11
21 20 21 22 23 24 25 24 24 24 24 24 24 23 21 19 20 20 20 18 18 17 16 17 16 15 14 13 12 12 11 11 10 10 10 9 9 9 10 10 10 10 11 11 11 11 11 11 11
21 21 21 22 23 24 24 24 23 23 23 23 23 23 21 19 19 19 19 18 17 16 15 16 16 15 14 13 12 11 11 10 10 10 9 9 9 9 9 10 10 10 11 11 11 11 11 11 11
21 20 20 22 23 23 24 23 23 23 22 22 22 22 21 20 20 19 18 17 17 16 15 15 15 14 13 12 12 11 10 10 10 9 9 9 9 9 9 9 10 10 10 10 10 10 10 10 11
21 19 20 22 23 22 23 23 23 22 22 22 22 22 21 20 19 18 18 17 16 16 15 14 14 13 13 12 11 11 10 10 10 9 9 9 9 9 9 9 9 9 10 10 10 10 10 10 10
22 20 21 23 23 22 21 22 22 22 20 21 21 20 20 19 19 18 18 17 17 16 15 14 13 13 12 11 11 11 10 10 10 9 9 9 8 8 8 8 9 9 9 10 10 10 10 10 10
22 21 22 22 21 20 20 21 21 21 21 21 20 20 19 19 18 18 18 18 17 16 15 14 13 13 12 11 11 11 10 10 10 9 9 9 8 8 8 8 8 9 9 9 9 9 9 9 9
21 21 22 22 21 20 20 20 20 20 20 20 19 19 18 18 18 18 18 17 17 16 15 14 13 13 12 11 11 10 10 10 10 9 9 9 8 8 8 8 8 8 8 8 8 8 8 8 8
21 21 21 21 21 21 20 20 20 20 20 19 19 18 18 17 17 17 17 17 17 16 15 14 13 13 12 11 11 11 10 10 9 9 9 9 8 8 8 8 8 8 8 7 7 7 7 7 7
20 19 19 20 21 21 20 18 19 20 20 19 19 18 17 17 16 16 16 16 16 16 15 14 13 12 12 11 11 10 10 10 9 9 9 8 8 8 8 8 8 7 7 7 7 7 7 7 7
20 19 18 21 21 20 18 18 20 20 19 20 19 19 17 16 16 15 16 16 16 15 14 14 13 12 12 11 11 10 10 10 9 9 9 8 8 8 8 8 8 7 7 7 7 7 7 7 7
19 18 19 20 20 20 18 18 20 20 20 20 19 19 17 16 15 15 15 15 15 15 14 14 13 12 12 11 11 10 10 9 9 9 9 9 8 8 8 8 8 7 7 7 7 7 7 7 7
19 19 20 20 20 20 19 18 19 20 19 20 19 19 17 15 14 14 15 15 15 14 14 14 13 12 12 11 11 10 10 10 10 9 9 9 9 8 8 8 8 7 7 7 7 7 6 6 6
19 19 18 20 20 19 18 18 19 20 19 19 19 18 16 15 14 14 14 14 14 14 13 13 13 12 12 11 11 10 10 10 9 9 9 9 9 8 8 8 8 7 7 7 7 6 6 6 6
19 18 18 19 20 19 18 18 19 19 19 19 19 18 16 14 13 13 13 13 14 13 13 13 13 12 12 11 11 10 10 10 10 9 9 9 9 8 8 8 8 8 7 7 7 7 6 6 6
18 17 18 19 19 18 17 17 18 18 19 19 19 18 16 15 13 13 13 13 13 13 13 13 13 12 12 12 11 11 10 10 10 9 9 9 9 9 8 8 8 8 7 7 7 7 6 6 6
17 19 19 18 17 17 18 16 18 17 17 17 18 17 16 15 14 13 13 13 13 13 13 13 13 12 12 12 11 11 10 10 9 9 9 9 9 8 8 8 8 7 7 7 7 6 6 5 5
18 18 18 18 17 16 17 17 17 16 15 15 16 17 16 15 13 13 13 13 13 13 13 13 13 12 12 12 11 11 10 10 9 9 8 8 8 8 8 7 7 7 7 7 6 6 6 6 5
18 17 17 17 16 15 17 17 17 16 16 16 16 17 15 14 13 13 13 13 13 13 13 12 12 12 12 11 11 10 10 9 9 8 8 8 7 7 7 7 7 7 7 6 6 6 6 5 5
17 16 15 15 14 15 19 18 18 19 18 17 16 16 15 14 13 12 12 12 12 12 12 12 12 12 11 11 10 10 10 9 9 8 8 8 7 7 7 6 6 6 6 6 6 5 5 5 5
15 16 16 16 16 17 17 17 18 18 18 19 18 16 15 14 13 12 12 12 12 12 12 11 11 11 11 10 10 10 9 9 8 8 7 7 7 7 6 6 6 6 6 6 5 5 5 5 4
16 16 17 16 17 16 17 18 17 17 17 17 17 16 15 14 13 12 12 11 12 12 11 11 11 10 10 10 9 9 9 8 8 7 7 7 6 6 6 6 6 6 6 5 5 5 4 4 3
16 17 16 15 15 15 18 18 17 15 15 16 16 16 15 14 13 12 11 11 11 11 11 10 10 10 10 9 9 9 8 8 7 7 7 6 6 6 6 6 5 5 5 5 4 4 4 3 3
15 16 16 16 16 16 16 18 18 17 16 15 16 16 15 14 13 12 11 11 10 10 10 10 10 9 9 9 8 8 8 7 7 6 6 6 5 5 5 5 5 5 4 4 4 3 3 2 2
16 16 16 15 16 16 15 16 18 17 17 16 17 17 16 15 13 12 11 11 10 10 10 9 9 9 9 8 8 7 7 7 6 6 5 5 5 5 5 4 4 4 4 3 3 2 2 1 1
Wind_Speed
11 13 9 3 3 5 6 2 3 4 3 8 6 4 5 7 6 6 6 10 13 16 23 23 22 20 18 16 15 13 12 11 11 11 11 11 12 12 12 12 12 12 12 13 13 13 14 14 14
11 9 5 4 5 6 4 5 4 7 8 5 1 3 2 6 9 10 6 9 14 18 23 22 23 21 19 17 16 14 13 12 12 11 11 11 11 11 11 11 11 11 11 11 12 12 12 12 13
10 8 4 4 6 7 2 6 7 7 5 0 2 2 2 5 8 6 8 10 12 16 22 22 24 21 19 18 16 15 13 12 11 11 10 10 10 10 10 10 10 10 10 10 10 11 11 11 11
6 4 5 6 9 6 2 6 7 2 4 2 4 3 5 7 5 8 10 10 12 13 21 23 24 22 20 18 17 16 14 12 12 11 10 10 10 9 9 9 9 8 8 9 9 9 9 9 9
4 4 6 7 10 1 2 6 5 4 2 4 1 5 4 6 11 12 10 10 12 12 20 24 24 22 20 18 17 16 14 13 12 11 10 9 9 9 9 8 7 7 7 7 7 7 8 8 8
4 4 6 8 9 4 4 4 3 5 4 2 2 4 5 8 10 10 10 8 9 11 18 24 23 22 20 19 17 16 15 13 12 11 10 9 9 9 8 7 6 6 5 5 5 5 5 6 6
5 5 8 9 5 1 2 4 2 5 6 3 2 3 6 7 7 8 9 8 9 12 15 21 21 20 20 19 18 17 15 14 13 11 10 9 9 8 8 7 6 5 4 3 3 3 3 3 3
4 5 8 8 6 2 3 5 1 4 7 5 3 4 6 5 6 7 7 6 8 10 11 17 18 19 18 18 18 17 16 14 13 12 11 10 9 8 8 7 6 5 4 3 2 1 0 1 1
4 4 7 8 5 4 3 2 1 2 4 7 4 2 8 9 8 7 6 4 6 8 10 13 15 17 17 17 17 17 16 15 14 13 12 11 10 10 10 10 9 7 5 5 4 4 4 4 5
4 5 9 8 6 7 6 4 4 3 6 7 5 2 9 7 7 7 8 9 9 9 9 10 12 15 16 15 16 16 15 15 14 13 14 13 12 11 10 11 11 9 7 7 7 7 7 8 10
6 8 9 7 6 6 7 7 6 6 8 5 4 5 3 4 5 7 8 8 10 11 10 9 11 15 15 12 13 13 13 14 15 14 15 14 12 9 10 11 11 10 9 10 11 11 11 12 11
6 9 8 6 4 2 6 7 8 8 6 2 3 3 2 3 4 5 6 6 8 11 11 9 9 11 13 13 11 12 11 11 11 12 13 12 9 7 8 9 11 13 13 12 11 11 12 12 12
8 9 8 5 2 5 7 9 9 10 4 1 2 0 2 3 3 2 2 3 6 10 11 9 9 9 10 10 9 9 10 11 12 12 12 11 8 6 7 7 9 10 10 10 9 9 10 10 11
7 8 9 8 8 8 9 10 9 7 3 3 4 3 1 1 2 2 1 2 4 8 11 9 8 9 9 7 6 7 9 11 12 12 13 13 10 9 7 7 7 8 9 9 9 9 9 8 9
5 9 11 12 11 5 2 8 11 8 6 6 6 6 4 3 3 3 2 1 4 8 10 9 8 8 9 7 7 8 9 10 9 11 13 14 12 10 8 6 6 8 10 10 9 9 8 5 5
8 8 7 5 7 7 3 8 3 9 7 7 5 6 7 6 6 5 4 2 4 8 9 9 6 7 9 7 7 6 7 8 8 8 10 12 13 12 9 6 6 9 9 8 5 3 4 5 5
9 8 11 5 8 7 7 7 3 8 8 7 6 6 8 8 8 6 5 5 6 8 9 9 7 6 7 7 6 5 4 4 5 5 6 7 8 9 8 6 7 8 7 5 4 4 4 5 6
7 7 7 3 7 7 8 9 7 8 8 8 7 8 9 9 7 7 7 7 8 9 9 9 7 5 7 5 5 4 3 2 2 3 4 6 7 8 7 6 6 7 4 4 4 5 5 5 6
8 10 11 8 1 4 8 11 9 7 8 8 8 9 10 9 8 8 8 9 9 9 9 9 8 6 6 4 4 4 3 2 2 3 5 6 7 8 7 5 5 5 4 5 6 5 6 5 4
7 9 11 9 2 3 8 12 10 8 9 8 9 10 11 10 9 8 8 8 8 8 8 8 8 7 7 5 4 3 3 2 2 1 2 4 5 6 6 5 4 4 4 6 6 6 5 5 4
9 10 11 9 3 5 6 9 10 6 6 7 9 11 12 11 10 9 9 9 8 8 8 8 8 8 7 6 5 3 2 1 1 1 1 3 4 4 4 5 5 4 4 5 6 6 7 6 5
9 6 7 7 6 5 6 5 5 10 9 9 9 11 11 11 11 10 10 10 9 8 8 9 8 8 7 5 4 4 2 2 2 1 1 2 4 3 3 4 5 4 4 5 6 6 5 6 6
4 3 3 5 7 8 8 6 6 12 10 12 11 11 12 11 11 10 10 10 9 7 7 8 8 8 6 5 4 3 3 2 1 1 0 1 1 2 3 3 3 4 4 5 6 6 6 5 7
3 1 4 5 4 6 10 10 6 10 14 15 13 12 12 12 11 10 9 10 9 7 7 7 8 7 6 5 5 4 4 3 2 2 2 2 2 1 2 3 3 5 4 5 6 6 7 7 8
4 4 4 5 5 8 5 5 6 6 13 16 17 15 13 12 12 11 11 10 9 9 7 7 8 7 6 5 5 4 3 2 1 1 2 3 2 2 2 1 3 4 5 7 6 7 8 8 9
9 7 6 4 4 1 2 6 2 6 5 12 16 16 14 13 11 11 11 10 10 9 8 8 8 6 5 5 4 3 3 1 1 1 2 3 3 3 3 3 5 6 8 7 6 6 8 8 9
7 9 6 5 7 5 6 5 4 3 4 6 13 16 15 14 13 12 11 10 10 9 8 8 7 6 5 4 3 3 2 1 1 2 2 3 3 3 4 5 6 7 7 7 7 7 8 8 9
4 3 5 5 4 5 7 8 7 8 8 8 12 14 14 13 13 12 11 10 9 8 7 7 7 6 5 4 3 2 0 1 1 2 4 4 5 4 6 7 7 8 7 7 8 8 8 9 9
8 4 5 5 5 3 4 2 3 9 11 11 11 13 14 14 13 12 10 10 9 9 8 7 6 5 4 3 2 1 1 1 2 3 4 5 5 6 7 7 8 8 9 9 8 9 9 10 10
9 10 8 5 6 5 3 3 2 6 7 9 9 10 12 13 12 12 11 10 9 9 8 7 6 5 4 3 1 0 1 2 3 4 5 5 6 7 7 8 8 9 9 9 9 10 10 10 10
Wind_Direction
271 256 244 252 252 241 247 95 70 72 65 62 50 345 344 45 43 93 147 140 127 140 151 160 158 157 156 153 148 142 137 129 122 117 112 107 99 94 88 82 77 73 69 66 64 62 62 63 64
275 247 238 241 250 252 218 129 107 65 59 56 131 250 276 85 93 116 135 124 132 143 151 161 160 159 159 157 153 147 143 138 131 123 118 114 107 100 94 89 82 77 72 69 68 66 64 64 63
269 254 233 226 244 264 54 93 81 78 87 296 247 191 15 63 80 101 126 132 135 143 152 161 161 162 161 160 157 153 150 146 140 134 128 123 115 107 100 94 87 81 76 72 69 67 65 63 63
245 223 243 246 251 243 32 93 80 53 133 158 298 272 117 70 74 108 130 143 140 144 152 159 163 164 165 164 161 157 156 153 147 142 137 131 124 117 110 103 95 87 81 75 70 67 64 61 59
243 236 231 248 262 240 104 68 73 293 222 161 246 303 73 83 100 116 138 152 146 149 151 158 166 167 168 167 166 162 161 159 154 151 146 141 135 128 122 116 108 99 90 80 73 67 63 60 56
240 245 240 238 239 185 140 127 153 261 277 164 179 281 91 112 104 117 133 159 149 146 147 157 168 170 171 171 170 167 166 165 163 160 157 152 146 141 137 132 124 115 103 91 81 71 63 57 52
262 260 269 275 281 148 125 81 22 305 308 340 55 320 102 84 100 125 138 163 143 143 144 154 168 171 174 175 174 172 172 171 170 169 166 163 159 157 155 151 147 141 129 114 97 79 64 53 42
303 289 271 276 287 305 67 82 47 329 318 1 26 314 92 129 126 117 127 145 137 141 144 152 166 172 175 177 177 176 176 177 176 175 172 171 172 174 173 171 173 171 169 168 167 156 52 341 325
288 282 279 284 310 331 54 93 205 152 268 289 272 261 124 135 132 129 133 145 146 149 153 154 165 170 173 176 179 177 179 180 179 177 173 171 178 187 190 189 186 190 199 211 223 233 247 256 256
224 262 272 299 342 350 359 354 327 305 270 263 259 137 121 136 157 169 178 177 171 170 170 161 164 166 171 176 174 178 179 181 182 182 177 181 194 199 194 189 188 199 214 228 238 243 250 253 248
239 249 276 307 359 6 336 314 297 275 271 289 336 26 97 156 182 200 208 190 177 173 174 169 163 163 167 168 166 175 178 179 188 193 185 190 199 191 173 168 184 201 216 228 234 233 237 240 241
263 281 287 302 20 351 296 294 293 278 276 319 20 28 338 279 233 215 220 211 169 162 166 170 160 157 162 163 166 169 170 173 183 194 190 187 188 189 182 182 190 202 211 220 222 217 233 235 240
267 268 278 294 288 258 266 270 273 268 267 329 47 84 272 290 303 260 221 215 157 152 157 167 159 151 155 156 164 168 169 174 183 191 195 195 184 187 199 202 209 213 215 217 219 228 242 245 243
315 323 306 281 252 240 246 258 250 245 179 174 184 178 130 35 354 353 64 185 164 148 151 158 160 151 148 152 161 169 174 177 182 185 194 203 201 198 203 206 212 220 225 230 229 233 242 245 244
301 284 275 250 230 210 241 262 234 209 174 198 194 154 124 94 70 46 55 158 164 144 141 150 161 152 151 159 168 173 179 179 180 180 194 204 209 212 210 211 217 225 232 238 239 246 257 260 259
250 255 259 218 168 133 180 267 207 145 171 209 190 141 128 100 80 66 61 77 113 122 126 131 140 149 152 158 166 166 176 175 176 185 197 208 212 216 218 216 222 234 238 236 232 233 252 258 257
238 244 251 195 171 163 203 263 167 161 185 207 194 151 127 104 85 78 80 89 103 111 114 119 129 153 148 148 145 143 145 146 160 185 201 213 222 227 227 225 232 242 246 243 236 235 238 257 266
279 289 294 273 170 186 227 258 237 195 191 207 185 143 121 105 91 84 84 83 91 103 112 120 129 137 124 120 118 112 109 120 166 195 211 222 235 242 241 240 244 252 252 251 244 246 248 250 257
293 303 302 302 139 187 250 261 248 196 188 203 174 144 125 117 115 107 102 98 96 101 111 120 124 122 116 115 123 130 154 180 195 211 225 229 233 240 237 235 243 248 247 249 247 249 259 263 262
286 281 280 280 175 183 264 267 254 196 191 190 171 148 134 130 124 119 113 107 106 107 110 113 116 112 106 110 113 116 120 127 128 160 212 244 248 245 237 225 227 236 245 252 253 249 256 262 246
252 252 263 280 305 231 253 277 235 171 169 174 161 143 139 143 141 132 118 110 103 100 104 108 106 103 103 110 109 104 100 114 167 195 196 228 245 250 248 244 243 246 241 247 248 242 244 254 252
256 261 263 283 294 275 206 271 214 165 171 179 166 148 145 142 137 131 123 112 105 102 102 105 106 106 111 117 115 130 137 138 146 148 181 229 215 217 236 250 257 257 255 257 255 246 240 242 253
243 32 313 274 264 274 258 251 252 156 181 189 180 161 148 142 137 132 126 122 117 114 111 112 111 110 110 107 105 98 84 79 70 51 56 305 236 189 213 234 258 265 261 261 262 264 254 241 241
124 187 249 254 253 258 233 219 250 184 193 184 180 167 152 144 138 132 128 126 123 123 120 120 117 115 114 111 108 95 83 52 37 16 6 337 317 266 234 224 247 259 258 259 259 258 257 252 251
175 204 228 213 216 241 218 204 254 183 178 178 176 167 156 149 147 148 150 147 144 142 140 135 128 127 125 117 108 107 95 53 36 27 354 337 323 313 301 301 276 272 266 262 256 256 256 254 254
193 216 232 252 238 194 175 227 251 69 102 162 163 159 155 156 158 160 161 154 150 151 151 143 134 132 127 120 116 110 112 100 53 16 327 305 293 287 296 297 281 277 276 273 263 261 257 255 251
194 216 252 303 302 288 246 206 126 86 79 144 156 158 163 164 163 163 160 155 153 154 153 143 137 133 129 125 115 94 77 80 24 316 301 293 290 289 292 287 279 275 274 270 268 264 262 260 256
274 246 179 205 238 251 252 231 198 175 185 183 171 168 168 165 164 162 161 158 154 151 144 138 136 137 135 125 113 112 44 27 337 309 297 291 291 292 289 285 281 279 276 273 272 271 267 266 264
191 231 220 217 247 251 277 291 38 159 175 184 186 176 172 170 168 164 160 155 150 145 144 142 140 137 131 120 107 84 360 337 311 294 287 289 291 293 290 286 285 284 283 281 278 276 277 275 276
197 204 205 213 231 220 256 278 67 94 141 166 181 177 172 169 166 160 156 153 152 151 152 150 149 143 136 129 116 322 306 299 293 292 296 300 297 294 290 290 288 286 286 285 284 285 285 283 284
Height
1526 1529 1532 1535 1536 1536 1531 1522 1519 1522 1523 1526 1529 1530 1529 1530 1534 1544 1542 1540 1540 1540 1541 1542 1544 1546 1547 1549 1550 1552 1553 1554 1555 1556 1557 1557 1558 1558 1558 1558 1558 1558 1558 1558 1557 1557 1557 1557 1557
1526 1531 1534 1535 1536 1539 1528 1519 1521 1523 1525 1528 1530 1530 1529 1530 1533 1537 1539 1540 1539 1540 1541 1542 1544 1545 1547 1549 1550 1552 1553 1554 1556 1556 1557 1558 1558 1558 1558 1558 1558 1558 1558 1558 1558 1558 1558 1558 1558
1527 1531 1534 1532 1533 1533 1525 1518 1520 1523 1527 1529 1528 1529 1529 1531 1534 1536 1538 1539 1539 1539 1540 1542 1544 1545 1547 1549 1550 1552 1553 1555 1556 1557 1557 1558 1559 1559 1559 1559 1559 1559 1559 1559 1559 1559 1559 1559 1559
1529 1532 1532 1530 1528 1520 1518 1518 1521 1524 1526 1528 1528 1527 1528 1531 1533 1535 1537 1538 1539 1539 1540 1541 1543 1545 1547 1548 1550 1552 1553 1555 1556 1557 1558 1559 1559 1559 1559 1559 1559 1559 1560 1559 1559 1559 1559 1560 1559
1530 1531 1531 1531 1523 1515 1515 1518 1523 1525 1524 1526 1528 1527 1529 1531 1532 1534 1536 1537 1538 1539 1539 1541 1543 1545 1546 1548 1550 1552 1553 1555 1556 1557 1558 1559 1559 1559 1560 1560 1560 1560 1560 1560 1560 1560 1560 1560 1560
1531 1527 1531 1531 1520 1513 1515 1518 1523 1525 1524 1525 1527 1527 1530 1531 1531 1533 1535 1536 1538 1538 1539 1540 1542 1544 1546 1548 1550 1552 1553 1555 1556 1557 1558 1559 1559 1560 1560 1560 1560 1560 1560 1561 1561 1561 1561 1561 1561
1530 1528 1528 1523 1518 1515 1515 1518 1522 1524 1524 1524 1525 1527 1530 1531 1531 1532 1534 1536 1537 1538 1538 1539 1541 1543 1545 1547 1549 1551 1553 1554 1556 1557 1558 1559 1560 1560 1560 1560 1561 1561 1561 1561 1561 1561 1561 1561 1561
1528 1527 1526 1522 1520 1518 1516 1519 1523 1525 1525 1526 1526 1527 1529 1530 1531 1532 1533 1534 1536 1536 1537 1537 1539 1542 1544 1546 1548 1551 1552 1554 1556 1557 1558 1559 1559 1560 1560 1560 1561 1561 1561 1561 1561 1561 1561 1561 1561
1528 1531 1530 1523 1520 1518 1516 1520 1523 1524 1526 1526 1526 1527 1527 1528 1529 1530 1531 1532 1534 1535 1536 1536 1538 1540 1542 1545 1547 1550 1552 1553 1555 1556 1557 1558 1559 1559 1560 1560 1560 1561 1561 1561 1561 1561 1561 1561 1560
1528 1532 1527 1519 1518 1518 1518 1520 1522 1524 1524 1524 1524 1525 1524 1526 1527 1527 1528 1529 1531 1532 1534 1535 1536 1538 1541 1543 1546 1548 1550 1552 1554 1555 1556 1557 1558 1558 1559 1559 1560 1560 1560 1560 1560 1560 1560 1560 1560
1524 1525 1521 1519 1519 1520 1521 1522 1522 1523 1523 1523 1523 1523 1524 1524 1525 1525 1526 1527 1528 1529 1532 1534 1536 1537 1539 1542 1544 1546 1548 1550 1552 1554 1555 1556 1557 1558 1558 1559 1559 1559 1559 1559 1559 1559 1559 1558 1558
1522 1521 1520 1519 1519 1521 1522 1522 1521 1520 1521 1521 1521 1521 1522 1522 1523 1523 1524 1525 1526 1527 1529 1532 1535 1536 1538 1540 1543 1545 1547 1548 1550 1552 1553 1555 1556 1556 1557 1557 1557 1557 1557 1557 1557 1557 1557 1556 1556
1520 1519 1518 1518 1519 1520 1521 1520 1520 1518 1518 1518 1518 1519 1519 1520 1520 1520 1521 1522 1524 1525 1526 1530 1533 1535 1537 1539 1541 1543 1545 1547 1548 1550 1551 1553 1554 1554 1555 1555 1555 1555 1555 1555 1555 1555 1555 1554 1554
1519 1518 1517 1516 1516 1517 1517 1517 1517 1514 1515 1516 1516 1517 1517 1517 1517 1517 1518 1519 1521 1522 1524 1527 1530 1533 1535 1537 1539 1541 1543 1545 1546 1548 1549 1550 1552 1552 1553 1553 1553 1554 1554 1553 1553 1553 1552 1551 1551
1520 1519 1516 1511 1511 1513 1516 1515 1510 1510 1512 1514 1515 1515 1515 1515 1515 1515 1515 1516 1519 1521 1522 1525 1528 1531 1533 1535 1538 1540 1542 1544 1545 1546 1547 1548 1549 1550 1551 1551 1551 1551 1551 1551 1550 1550 1549 1548 1547
1518 1519 1518 1505 1507 1510 1518 1518 1505 1506 1510 1512 1513 1513 1514 1514 1514 1513 1513 1514 1516 1519 1521 1523 1526 1529 1531 1534 1536 1538 1540 1542 1543 1544 1545 1546 1547 1548 1548 1548 1548 1548 1548 1548 1547 1546 1545 1544 1543
1517 1519 1513 1506 1505 1507 1513 1512 1506 1506 1508 1509 1510 1512 1513 1513 1513 1512 1512 1513 1515 1517 1519 1521 1524 1528 1530 1532 1535 1537 1538 1540 1541 1542 1542 1543 1544 1545 1545 1545 1545 1545 1545 1544 1543 1542 1541 1539 1538
1516 1512 1507 1505 1503 1505 1509 1508 1504 1503 1505 1506 1508 1510 1511 1512 1513 1512 1512 1513 1514 1516 1518 1520 1523 1526 1529 1531 1532 1534 1536 1537 1538 1539 1540 1540 1541 1541 1541 1541 1541 1541 1540 1540 1539 1538 1537 1535 1533
1510 1512 1513 1506 1502 1504 1507 1505 1499 1498 1500 1502 1504 1507 1510 1512 1513 1513 1513 1513 1514 1516 1518 1520 1522 1525 1527 1529 1530 1532 1533 1535 1535 1536 1537 1537 1537 1537 1537 1537 1537 1536 1536 1535 1534 1533 1532 1531 1530
1510 1515 1513 1506 1500 1503 1504 1501 1494 1493 1496 1498 1501 1505 1508 1511 1513 1513 1513 1514 1515 1516 1518 1520 1522 1524 1526 1528 1529 1531 1532 1533 1534 1534 1534 1534 1534 1534 1534 1533 1533 1532 1531 1531 1530 1529 1527 1526 1526
1511 1513 1511 1507 1502 1501 1504 1503 1492 1490 1493 1496 1499 1502 1506 1509 1511 1513 1513 1514 1515 1517 1518 1520 1522 1524 1526 1527 1529 1530 1531 1532 1532 1532 1532 1532 1532 1531 1531 1530 1529 1529 1528 1527 1526 1525 1523 1522 1521
1511 1503 1503 1505 1510 1509 1503 1512 1491 1490 1493 1495 1497 1501 1504 1508 1510 1512 1513 1514 1515 1517 1519 1520 1522 1524 1526 1527 1528 1529 1530 1530 1531 1531 1530 1530 1529 1528 1528 1527 1526 1525 1524 1523 1522 1521 1520 1518 1516
1503 1503 1503 1505 1509 1512 1502 1507 1494 1489 1494 1494 1495 1499 1502 1506 1509 1510 1512 1513 1515 1517 1519 1520 1522 1524 1525 1526 1528 1528 1529 1529 1529 1529 1528 1528 1527 1526 1525 1524 1523 1522 1521 1520 1518 1517 1515 1514 1511
1500 1504 1505 1507 1511 1518 1499 1502 1493 1486 1484 1488 1492 1496 1500 1504 1507 1509 1511 1513 1514 1516 1518 1520 1522 1523 1524 1525 1526 1526 1527 1527 1527 1526 1526 1525 1524 1523 1522 1521 1520 1518 1517 1515 1514 1512 1510 1508 1506
1503 1510 1517 1520 1523 1513 1484 1489 1483 1468 1470 1477 1484 1491 1496 1501 1504 1507 1509 1511 1513 1515 1517 1519 1520 1522 1523 1524 1524 1524 1524 1524 1524 1523 1523 1522 1521 1520 1519 1518 1516 1514 1513 1511 1509 1506 1504 1502 1499
1501 1503 1511 1513 1508 1495 1492 1491 1477 1468 1468 1472 1479 1487 1493 1498 1502 1505 1507 1509 1511 1513 1516 1517 1519 1520 1521 1522 1522 1522 1522 1522 1521 1521 1520 1519 1518 1517 1515 1514 1512 1510 1507 1505 1503 1500 1498 1495 1492
1495 1498 1493 1501 1498 1500 1489 1477 1476 1470 1471 1473 1478 1484 1489 1494 1499 1502 1505 1507 1509 1512 1514 1516 1517 1518 1519 1520 1520 1520 1519 1519 1518 1517 1516 1515 1514 1512 1511 1509 1507 1504 1502 1499 1496 1493 1491 1488 1485
1489 1488 1496 1503 1507 1507 1486 1478 1477 1477 1475 1475 1477 1481 1486 1491 1496 1499 1502 1505 1507 1509 1511 1513 1515 1516 1516 1517 1517 1517 1516 1516 1515 1514 1513 1511 1510 1508 1506 1504 1501 1499 1496 1493 1490 1486 1483 1480 1477
1490 1490 1488 1491 1490 1499 1497 1482 1465 1466 1468 1472 1474 1478 1483 1487 1491 1495 1499 1502 1505 1507 1509 1510 1512 1513 1514 1514 1514 1514 1513 1512 1511 1510 1509 1507 1505 1503 1501 1498 1495 1492 1489 1486 1482 1479 1476 1472 1468
1479 1482 1485 1494 1490 1486 1493 1485 1464 1463 1464 1468 1472 1476 1480 1484 1488 1492 1496 1499 1501 1503 1505 1507 1509 1510 1510 1511 1511 1510 1509 1508 1507 1506 1504 1502 1500 1498 1495 1492 1489 1485 1482 1479 1475 1471 1467 1464 1460